Location: ?????????
(55.6553°N, 38.9075°E)
Time: 05:09:19
(UTC+00:00)

Intercosmos 25 - Pass Details

Date: 18 October 2019
Orbit: 439 x 2877 km, 82.6° (Epoch: 12 November)

Event Time Altitude Azimuth Distance (km) Brightness Sun altitude
Rises 00:33:37 0° 350° (N) 2,748 7.1 -29.1°
Reaches altitude 10° 00:35:26 10° 354° (N) 1,995 6.4 -28.8°
Maximum altitude 00:39:41 63° 76° (ENE) 905 4.5 -28.3°
Drops below altitude 10° 00:46:28 10° 158° (SSE) 3,139 7.1 -27.5°
Sets 00:49:58 0° 161° (SSE) 4,499 7.9 -27.0°
